星链-32499 (STARLINK-32499)

导读 | 豆包AI

STARLINK-32499是美国SpaceX星链星座的卫星,于2024年11月14日发射升空,属于星链网络扩容项目,用于补充全球低轨卫星互联网覆盖规模,为全球偏远地区、移动场景提供宽带互联网服务,该卫星运行在近地轨道,依托星链组网提升网络容量与服务稳定性,是美国低轨通信星座建设的组成部分。

基本信息
目录编号:
61959
目录名称:
STARLINK-32499
国际标识:
2024-210A
轨道中心:
EARTH
卫星名称:
星链-32499
卫星全名:
星链-32499 (STARLINK-32499)
卫星状态:
在轨 (已飞行486 天)
发射日期:
2024-11-14 UTC
国别 :
美国 (US)
星等 :
--
轨道信息
数据来源 国际轨道数据
星历时间: 2026-03-15T05:56:25+0800
13小时前
查看轨道信息
半长轴: 6861.145km
偏心率: 0.0000882
轨道倾角: 42.998°
近地点辐角 278.435°
升交点赤经 149.923°
平近点角 81.640°
近地点: 482.402km
远地点: 483.614km
周期: 94.266分钟
每日圈数: 15.27594
详细信息
固有亮度:
5
最大亮度:
2.5
卫星平台:
Starlink V1.0
覆盖范围:
全球
运营商:
太空探索技术公司
运营商所在国:
美国
制造商(研发单位):
太空探索技术公司
制造商所在国:
美国
使用方式:
暂无
卫星简介
Starlink 计划是 SpaceX 推出的全球卫星互联网项目,通过发射低轨道卫星,为全球尤其是偏远地区提供高速、低延迟的互联网服务。自 2019 年起,Starlink 已部署数千颗卫星,旨在缩小全球数字鸿沟,推动互联网普及。该项目还为军事、航空等行业提供通信支持,带来广泛经济效益。
2D轨道图
3D轨道图
轨道高度分析图
轨道倾角分析图
轨道综合分析图
查看轨道综合分析图